Weather History for Atlanta Dekalb, GA

Change the Weather History Date:

Wednesday, June 6, 2012

  Actual Average Record
Temperature  
Mean Temperature 72 °F 75 °F  
Max Temperature 82 °F 85 °F 95 °F (2008)
Min Temperature 62 °F 65 °F 55 °F (2006)
Cooling Degree Days 6 10  
Month to date cooling degree days 56  
Year to date cooling degree days 267  
Since 1 June cooling degree days 56  
Growing Degree Days 22 (Base 50)    
Moisture  
Dew Point 58 °F    
Average Humidity 69    
Maximum Humidity 88    
Minimum Humidity 37    
Precipitation  
Precipitation 0.00 in 0.13 in 0.50 in (2002)
Month to date precipitation 0.79  
Year to date precipitation 23.28  
Sea Level Pressure  
Sea Level Pressure 29.87 in    
Wind  
Wind Speed 4 mph (NE)    
Max Wind Speed 9 mph    
Max Gust Speed -    
Visibility 10 miles    
Events      
T = Trace of Precipitation, MM = Missing Value Source: NWS Daily Summary

Daily Weather History Graph

Daily Weather History Graph

Search for Another Location

Airport:

Trip Planner

Search our weather history database for the weather conditions in past years. The results will help you decide how hot, cold, wet, or windy it might be!

Date:

Astronomy

Jun. 06, 2012 Rise Set
Actual Time 6:26 AM EDT 8:46 PM EDT
Civil Twilight 5:57 AM EDT 9:14 PM EDT
Nautical Twilight 5:21 AM EDT 9:50 PM EDT
Astronomical Twilight 4:43 AM EDT 10:29 PM EDT
Moon 11:01 PM EDT (6/6) 8:43 AM EDT (6/6)
Length of Visible Light 15h 17m
Length of Day
14h 19m
Waning Gibbous, 93% of the Moon is Illuminated
Jun 6
Waning Gibbous
Jun 11
Last Quarter
Jun 19
New
Jun 26
First Quarter
Jul 3
Full

Hourly Weather History & Observations

Time (EDT) Temp. Heat Index Dew Point Humidity Pressure Visibility Wind Dir Wind Speed Gust Speed Precip Events Conditions
12:17 AM 66.2 °F - 60.8 °F 83% 29.87 in 10.0 mi East 4.6 mph - N/A   Overcast
12:24 AM 66.2 °F - 60.8 °F 83% 29.87 in 10.0 mi East 3.5 mph - N/A   Overcast
12:53 AM 66.0 °F - 60.1 °F 81% 29.83 in 10.0 mi East 3.5 mph - N/A   Mostly Cloudy
1:23 AM 64.4 °F - 60.8 °F 88% 29.86 in 10.0 mi Variable 3.5 mph - N/A   Overcast
1:53 AM 64.9 °F - 60.1 °F 84% 29.83 in 10.0 mi Calm Calm - N/A   Overcast
2:53 AM 64.4 °F - 60.8 °F 88% 29.85 in 10.0 mi Calm Calm - N/A   Overcast
3:53 AM 64.9 °F - 60.1 °F 84% 29.82 in 10.0 mi Calm Calm - N/A   Overcast
4:53 AM 64.9 °F - 60.1 °F 84% 29.81 in 10.0 mi NNE 4.6 mph - N/A   Overcast
5:14 AM 64.4 °F - 60.8 °F 88% 29.84 in 10.0 mi North 4.6 mph - N/A   Overcast
5:43 AM 64.4 °F - 60.8 °F 88% 29.85 in 10.0 mi NNE 5.8 mph - N/A   Overcast
5:47 AM 64.4 °F - 60.8 °F 88% 29.85 in 10.0 mi NNE 4.6 mph - N/A   Overcast
5:53 AM 64.0 °F - 60.1 °F 87% 29.82 in 10.0 mi Variable 3.5 mph - N/A   Overcast
6:11 AM 64.4 °F - 59.0 °F 83% 29.86 in 10.0 mi NE 5.8 mph - N/A   Mostly Cloudy
6:42 AM 62.6 °F - 59.0 °F 88% 29.86 in 8.0 mi NNE 4.6 mph - N/A   Mostly Cloudy
6:53 AM 63.0 °F - 59.0 °F 87% 29.84 in 8.0 mi Calm Calm - N/A   Mostly Cloudy
7:27 AM 62.6 °F - 59.0 °F 88% 29.87 in 8.0 mi Variable 3.5 mph - N/A   Scattered Clouds
7:53 AM 64.9 °F - 59.0 °F 81% 29.84 in 9.0 mi NE 6.9 mph - N/A   Clear
8:53 AM 68.0 °F - 59.0 °F 73% 29.86 in 10.0 mi Variable 3.5 mph - N/A   Partly Cloudy
9:53 AM 70.0 °F - 59.0 °F 68% 29.86 in 10.0 mi Calm Calm - N/A   Scattered Clouds
10:07 AM 69.8 °F - 59.0 °F 68% 29.90 in 10.0 mi NE 4.6 mph - N/A   Mostly Cloudy
10:53 AM 73.0 °F - 60.1 °F 64% 29.87 in 10.0 mi Variable 3.5 mph - N/A   Mostly Cloudy
11:07 AM 71.6 °F - 57.2 °F 60% 29.90 in 10.0 mi North 6.9 mph - N/A   Scattered Clouds
11:27 AM 73.4 °F - 57.2 °F 57% 29.91 in 10.0 mi North 8.1 mph - N/A   Mostly Cloudy
11:43 AM 73.4 °F - 57.2 °F 57% 29.91 in 10.0 mi North 4.6 mph - N/A   Mostly Cloudy
11:53 AM 73.9 °F - 57.9 °F 57% 29.87 in 10.0 mi North 8.1 mph - N/A   Mostly Cloudy
12:53 PM 75.0 °F - 57.0 °F 53% 29.88 in 10.0 mi Variable 3.5 mph - N/A   Scattered Clouds
1:53 PM 78.1 °F - 55.9 °F 46% 29.87 in 10.0 mi Variable 4.6 mph - N/A   Scattered Clouds
2:53 PM 79.0 °F - 55.9 °F 45% 29.86 in 10.0 mi NNE 9.2 mph - N/A   Partly Cloudy
3:53 PM 78.1 °F - 53.1 °F 42% 29.85 in 10.0 mi East 4.6 mph - N/A   Scattered Clouds
4:53 PM 81.0 °F 80.4 °F 53.1 °F 38% 29.84 in 10.0 mi ESE 6.9 mph - N/A   Mostly Cloudy
5:53 PM 80.6 °F - 51.8 °F 37% 29.90 in 10.0 mi NNE 5.8 mph - N/A   Mostly Cloudy
6:53 PM 79.0 °F - 52.0 °F 39% 29.87 in 10.0 mi East 3.5 mph - N/A   Clear
7:53 PM 78.8 °F - 53.6 °F 42% 29.92 in 10.0 mi East 3.5 mph - N/A   Scattered Clouds
8:53 PM 75.0 °F - 54.0 °F 48% 29.89 in 10.0 mi East 3.5 mph - N/A   Mostly Cloudy
9:53 PM 72.0 °F - 59.0 °F 64% 29.91 in 10.0 mi Variable 5.8 mph - N/A   Partly Cloudy
10:53 PM 70.0 °F - 59.0 °F 68% 29.93 in 10.0 mi East 6.9 mph - N/A   Scattered Clouds
11:53 PM 66.9 °F - 59.0 °F 76% 29.95 in 10.0 mi Variable 4.6 mph - N/A   Clear